User: anonymous   Login
Location: Fort Wayne
(41.1310°N, 85.1290°W)
Time: 17:47:17
(UTC-04:00)
Language:

Cosmos 1953 - Orbit

View from above orbital plane
View from above orbital plane
View from above satellite
View from above satellite

Ground track
Ground track

The orbit data is extracted from the following two-line orbital elements,

1 19210U 88050A   15242.64672406  .00000780  00000-0  54167-4 0  9995
2 19210 082.5188 309.4278 0013203 345.3890 014.6953 15.04113787479107
Epoch (UTC): 30 August 2015 15:31:16
Eccentricity: 0.0013203
inclination: 82.5188°
perigee height: 545 km
apogee height: 563 km
right ascension of ascending node: 309.4278°
argument of perigee: 345.3890°
revolutions per day: 15.04113787
mean anomaly at epoch: 14.6953°
orbit number at epoch: 47910

The dashed part of the orbit path shows where the satellite is in the earth's shadow,  

DLR